This demonstration page uses our WeatherBlox Daily Observations layout. Learn more.

41.55636, -103.73856

Hourly Observations for December 9, 2015

Temp ( °F °C ) Dew Point ( °F °C ) Humidity (%) Winds ( mph kmh ) Pressure ( in mb ) Visibility ( mi km ) Precip ( " mm )
12:53 am 00:53 Clear 50 10 30 -1 47 47 W 15 24 29.85 1011 10 16.09344 0 0
1:53 am 01:53 Clear 50 10 30 -1 47 47 WNW 17 28 29.83 1010 10 16.09344 0 0
2:53 am 02:53 Clear 52 11 30 -1 44 44 W 22 35 29.77 1008 10 16.09344 0 0
3:53 am 03:53 Clear 52 11 30 -1 44 44 W 18 30 29.77 1008 10 16.09344 0 0
4:53 am 04:53 Clear 50 10 30 -1 47 47 WNW 13 20 29.8 1009 10 16.09344 0 0
5:53 am 05:53 Clear 48 9 30 -1 50 50 W 10 17 29.77 1008 10 16.09344 0 0
6:53 am 06:53 Clear 45 7 28 -2 53 53 W 5 7 29.8 1009 10 16.09344 0 0
7:53 am 07:53 Sunny 46 8 30 -1 53 53 WSW 8 13 29.74 1007 10 16.09344 0 0
8:53 am 08:53 Sunny 54 12 32 0 44 44 NW 5 7 29.68 1005 10 16.09344 0 0
9:53 am 09:53 Sunny 63 17 30 -1 30 30 W 18 30 29.59 1002 10 16.09344 0 0
10:53 am 10:53 Sunny 64 18 28 -2 26 26 W 28 44 29.53 1000 10 16.09344 0 0
11:53 am 11:53 Sunny 66 19 27 -3 22 22 WNW 28 44 29.53 1000 10 16.09344 0 0
12:53 pm 12:53 Sunny 66 19 21 -6 18 18 WNW 24 39 29.47 998 9 14.484096 0 0
1:53 pm 13:53 Sunny 66 19 19 -7 17 17 W 21 33 29.44 997 10 16.09344 0 0
2:53 pm 14:53 Sunny 66 19 16 -9 14 14 W 29 46 29.41 996 10 16.09344 0 0
3:53 pm 15:53 Sunny 64 18 18 -8 16 16 W 22 35 29.44 997 10 16.09344 0 0
4:53 pm 16:53 Clear 63 17 16 -9 16 16 WSW 16 26 29.44 997 10 16.09344 0 0
5:53 pm 17:53 Clear 63 17 18 -8 17 17 W 18 30 29.47 998 10 16.09344 0 0
6:53 pm 18:53 Clear 57 14 19 -7 23 23 W 9 15 29.53 1000 10 16.09344 0 0
7:53 pm 19:53 Clear 57 14 19 -7 23 23 W 12 19 29.53 1000 10 16.09344 0 0
8:53 pm 20:53 Partly Cloudy 57 14 21 -6 25 25 W 15 24 29.53 1000 10 16.09344 0 0
9:53 pm 21:53 Clear 55 13 23 -5 28 28 WNW 10 17 29.53 1000 10 16.09344 0 0
10:53 pm 22:53 Clear 59 15 25 -4 27 27 W 33 54 29.5 999 10 16.09344 0 0
11:53 pm 23:53 Clear 55 13 27 -3 33 33 W 32 52 29.56 1001 10 16.09344 0 0

Powered by AerisWeather